[[{"header":{"parameterUnit":"m.s-1","parameterCategory":1,"la1":30.2991,"la2":30.254,"lo1":-89.0895,"lo2":-89.0444,"dx":0.0017,"dy":0.0017,"nx":28,"ny":28,"refTime":"2022-12-13T15:00:00:Z","depth":0,"parameterNumber":2,"parameterNumberName":"U-component_of_WINDS"},"data":[0,0,0,0,0,0,0,0,0,0,0,0,0,0,0,0,0,0,0,0,0,0,0,0,0,0,0,0,0,0,0,0,0,0,0,0,0,0,0,0,0,0,0,0,0,0,0,0,0,0,0,0,0,0,0,0,0,0,2.4199,2.42,0,2.4226,2.4227,2.4227,2.4206,2.4205,2.4204,2.4203,2.4229,2.4231,2.4232,0,0,0,0,0,0,0,0,0,0,0,0,0,2.4129,2.413,2.4199,2.42,2.42,2.4226,2.4227,2.4227,2.4206,2.4205,2.4204,2.4203,2.4229,2.4231,2.4233,0,0,0,0,0,0,0,0,0,0,0,0,0,2.4158,2.4131,2.4199,2.4193,2.4192,2.4226,2.4227,2.4227,2.4206,2.4205,2.4203,2.4202,2.4228,2.4231,2.4233,2.4275,0,0,2.424,2.4241,0,0,0,0,0,0,0,0,2.4156,2.4161,2.4193,2.4193,2.4193,2.4211,2.4212,2.4243,2.4206,2.4201,2.4203,2.4201,2.4224,2.4227,2.4235,2.4276,2.4277,2.424,2.4242,2.4243,2.4243,0,0,0,0,0,0,0,2.4154,2.4159,2.421,2.4194,2.4193,2.4188,2.4191,2.4217,2.422,2.4201,2.42,2.4203,2.4224,2.4233,2.4235,2.4277,2.424,2.4242,2.4244,2.4245,2.4355,2.4356,0,0,0,0,0,0,2.4153,2.4158,2.4209,2.4211,2.4171,2.4191,2.4193,2.4207,2.422,2.422,2.4204,2.4202,2.4229,2.4233,2.4236,2.4287,2.4243,2.4245,2.4246,2.4354,2.4355,2.4357,0,0,0,0,0,0,2.4152,2.4158,2.4208,2.4184,2.419,2.4193,2.4208,2.4208,2.4217,2.4222,2.4222,2.4213,2.4229,2.4233,2.4266,2.4287,2.4246,2.4248,2.4352,2.4354,2.4356,2.4387,0,0,0,0,0,0,2.415,2.4158,2.4173,2.4184,2.4191,2.4237,2.421,2.4209,2.4221,2.4218,2.423,2.4231,2.4228,2.4262,2.4268,2.429,2.425,2.435,2.4353,2.4355,2.4384,2.439,2.4395,0,0,0,0,0,2.4147,2.418,2.4174,2.4181,2.4211,2.4238,2.4242,2.4238,2.4223,2.4239,2.4242,2.423,2.4284,2.4266,2.4272,2.4295,2.4348,2.4352,2.4355,2.4382,2.4389,2.4395,0,0,0,0,0,0,2.4171,2.4182,2.4175,2.4213,2.4225,2.4235,2.4254,2.4246,2.4263,2.4259,2.4254,2.4257,2.4291,2.4296,2.4276,2.4336,2.4314,2.4319,2.4332,2.4339,2.4344,2.4342,2.4252,0,0,0,0,0,2.4181,2.4202,2.421,2.4243,2.4249,2.4251,2.4263,2.4259,2.4271,2.4276,2.4282,2.4294,2.4314,2.4326,2.4345,2.4385,2.4388,2.4404,2.441,2.4414,2.4418,2.4441,2.4448,2.4368,2.4368,2.4368,0,0,2.42,2.4209,2.4223,2.4248,2.4257,2.4279,2.4255,2.4279,2.4296,2.4279,2.4311,2.4316,2.4329,2.4366,2.4382,2.4371,2.4441,2.4419,2.4422,2.4424,2.4445,2.4453,2.4459,2.4371,2.437,2.437,0,0,2.4248,2.4257,2.4285,2.4295,2.431,2.4311,2.4318,2.4329,2.4332,2.4364,2.4352,2.4372,2.4405,2.4416,2.4425,2.4479,2.4468,2.4485,2.4514,2.4536,2.4542,2.4548,2.4567,2.4574,2.4489,2.4489,2.4489,0,2.4271,2.4304,2.4301,2.4326,2.4338,2.4325,2.4354,2.4364,2.4383,2.4391,2.4379,2.4422,2.443,2.4469,2.4483,2.4491,2.4499,2.4483,2.4542,2.4547,2.4552,2.4571,2.4578,2.4491,2.4491,2.4491,2.4491,0,2.4332,2.4355,2.4376,2.4397,2.4411,2.4438,2.4438,2.4453,2.4449,2.4452,2.4484,2.4494,2.4514,2.4523,2.4519,2.4563,2.4555,2.4542,2.4519,2.4562,2.4579,2.4586,2.4494,2.4493,2.4493,2.4492,0,0,2.4394,2.4413,2.4421,2.443,2.4446,2.4464,2.4491,2.4511,2.4524,2.4538,2.4561,2.4591,2.4579,2.459,2.4587,2.4607,2.4649,2.4591,2.4592,2.4602,2.4698,2.4708,2.4716,2.4643,2.4644,2.4645,2.4697,0,2.4442,2.4489,2.4488,2.4532,2.4554,2.4543,2.4566,2.4579,2.4582,2.4601,2.4605,2.4627,2.461,2.4616,2.4635,2.464,2.4668,2.4636,2.4663,2.4665,2.466,2.4725,2.4735,2.4783,2.4704,2.4705,2.4706,0,2.4505,2.4522,2.4568,2.4582,2.4591,2.4612,2.4632,2.465,2.4664,2.4666,2.4679,2.4673,2.4701,2.4678,2.4716,2.4694,2.4705,2.471,2.4711,2.4713,2.4687,2.4728,2.4799,2.4806,2.4716,2.4716,2.4715,0,2.4545,2.458,2.4613,2.4621,2.4638,2.4653,2.4661,2.4673,2.4686,2.4704,2.4712,2.4732,2.4743,2.4759,2.4759,2.4742,2.4797,2.4774,2.4799,2.4799,2.4811,2.481,2.4883,2.4819,2.4819,2.4818,2.4818,0,2.4599,2.4628,2.4631,2.4651,2.4684,2.4682,2.4714,2.472,2.4732,2.4753,2.4745,2.4765,2.4763,2.4784,2.4784,2.4816,2.4821,2.4823,2.4822,2.4823,2.4823,2.483,2.4826,2.482,2.482,2.482,2.4819,0,2.4649,2.4653,2.4688,2.4701,2.4705,2.4729,2.474,2.4759,2.4763,2.479,2.4796,2.4801,2.4825,2.4827,2.4854,2.4854,2.4893,2.4889,2.4888,2.4887,2.4912,2.491,2.4992,2.5003,2.4932,2.4933,2.4933,0,2.4683,2.4705,2.4722,2.4736,2.4745,2.4767,2.478,2.478,2.4795,2.4813,2.483,2.4853,2.4872,2.491,2.4916,2.4937,2.4934,2.4961,2.4937,2.4937,2.4934,2.4933,2.4935,2.4966,2.4967,2.4967,2.4968,0,2.4743,2.4744,2.4764,2.4786,2.4803,2.4819,2.4834,2.4846,2.4848,2.4865,2.4889,2.4904,2.4932,2.4955,2.4976,2.4984,2.4976,2.4976,2.4983,2.4983,2.4982,2.4983,2.4901,2.4974,2.4973,2.4973,2.4972,2.4972,2.4786,2.4806,2.4821,2.4844,2.4856,2.4871,2.489,2.4896,2.4917,2.494,2.4939,2.4966,2.4981,2.5008,2.5018,2.5039,2.503,2.504,2.5042,2.5045,2.5047,2.498,2.5043,2.5043,2.5043,2.5043,2.5043,0,2.4846,2.4855,2.4877,2.4899,2.4918,2.491,2.4927,2.4943,2.4967,2.4982,2.5,2.5029,2.5052,2.5061,2.5083,2.5098,2.5096,2.5104,2.5103,2.5105,2.5054,2.5046,2.5106,2.5106,2.5106,2.5106,2.5106,2.5106,2.4879,2.4912,2.4915,2.4954,2.4963,2.499,2.5001,2.5015,2.5026,2.5059,2.5078,2.5084,2.5097,2.512,2.5141,2.5143,2.5151,2.5161,2.5162,2.5115,2.5108,2.5102,2.5094,2.5163,2.5164,2.5211,2.5211,2.5211]},{"header":{"parameterUnit":"m.s-1","parameterCategory":1,"la1":30.2991,"la2":30.254,"lo1":-89.0895,"lo2":-89.0444,"dx":0.0017,"dy":0.0017,"nx":28,"ny":28,"refTime":"2022-12-13T15:00:00:Z","depth":0,"parameterNumber":3,"parameterNumberName":"V-component_of_WINDS"},"data":[0,0,0,0,0,0,0,0,0,0,0,0,0,0,0,0,0,0,0,0,0,0,0,0,0,0,0,0,0,0,0,0,0,0,0,0,0,0,0,0,0,0,0,0,0,0,0,0,0,0,0,0,0,0,0,0,0,0,-4.8395,-4.8397,0,-4.8612,-4.8615,-4.8617,-4.8639,-4.8637,-4.8634,-4.8632,-4.8855,-4.8863,-4.8871,0,0,0,0,0,0,0,0,0,0,0,0,0,-4.7998,-4.8005,-4.8394,-4.8397,-4.84,-4.8612,-4.8615,-4.8618,-4.8639,-4.8636,-4.8634,-4.8631,-4.8852,-4.8862,-4.8871,0,0,0,0,0,0,0,0,0,0,0,0,0,-4.8188,-4.8007,-4.8394,-4.8436,-4.8442,-4.8611,-4.8615,-4.8619,-4.864,-4.8636,-4.8633,-4.863,-4.8849,-4.8861,-4.8873,-4.9015,0,0,-4.8909,-4.8915,0,0,0,0,0,0,0,0,-4.8177,-4.8203,-4.8427,-4.8433,-4.844,-4.8595,-4.8557,-4.8751,-4.8641,-4.8565,-4.8632,-4.8628,-4.8771,-4.8789,-4.8838,-4.9025,-4.9035,-4.891,-4.8918,-4.8923,-4.8926,0,0,0,0,0,0,0,-4.8164,-4.8193,-4.8481,-4.843,-4.8438,-4.8444,-4.8468,-4.8594,-4.8684,-4.8571,-4.8573,-4.8599,-4.8774,-4.8826,-4.8843,-4.9038,-4.891,-4.8921,-4.8928,-4.8933,-4.9356,-4.9359,0,0,0,0,0,0,-4.8143,-4.8182,-4.8474,-4.8487,-4.8298,-4.8454,-4.848,-4.8549,-4.8683,-4.87,-4.8601,-4.8599,-4.8807,-4.8829,-4.8851,-4.9028,-4.8923,-4.8934,-4.8941,-4.9352,-4.9357,-4.9361,0,0,0,0,0,0,-4.8134,-4.8169,-4.8465,-4.8335,-4.8374,-4.8465,-4.8541,-4.8555,-4.8607,-4.8706,-4.8722,-4.8638,-4.8805,-4.8834,-4.8974,-4.9036,-4.894,-4.8951,-4.9347,-4.9353,-4.9359,-4.9382,0,0,0,0,0,0,-4.8123,-4.8165,-4.822,-4.8336,-4.838,-4.8585,-4.8545,-4.8561,-4.8628,-4.8626,-4.8744,-4.876,-4.8805,-4.8956,-4.8986,-4.9051,-4.896,-4.9342,-4.935,-4.9357,-4.9376,-4.9388,-4.9398,0,0,0,0,0,-4.8108,-4.8217,-4.8223,-4.8258,-4.8451,-4.8588,-4.8613,-4.8662,-4.8632,-4.8689,-4.8752,-4.8757,-4.9024,-4.8971,-4.9005,-4.9073,-4.9338,-4.9347,-4.9356,-4.9371,-4.9386,-4.9398,0,0,0,0,0,0,-4.8105,-4.8233,-4.8241,-4.839,-4.8478,-4.8591,-4.8664,-4.8676,-4.8773,-4.8768,-4.8825,-4.8851,-4.899,-4.9046,-4.8984,-4.9219,-4.9178,-4.9194,-4.9178,-4.9193,-4.9203,-4.9187,-4.897,0,0,0,0,0,-4.8122,-4.8223,-4.8329,-4.8451,-4.8495,-4.8572,-4.8633,-4.8664,-4.8757,-4.8794,-4.8868,-4.8958,-4.9063,-4.9131,-4.9232,-4.9384,-4.9411,-4.9448,-4.9459,-4.9468,-4.9481,-4.9568,-4.9586,-4.939,-4.939,-4.939,0,0,-4.8158,-4.824,-4.83,-4.8453,-4.8524,-4.8628,-4.8603,-4.8713,-4.8791,-4.8811,-4.8949,-4.9006,-4.9111,-4.9258,-4.9327,-4.9309,-4.9542,-4.9479,-4.9485,-4.9495,-4.9579,-4.9597,-4.9614,-4.9396,-4.9395,-4.9394,0,0,-4.8276,-4.8348,-4.8458,-4.8531,-4.864,-4.8691,-4.8717,-4.8829,-4.8868,-4.9008,-4.9025,-4.9118,-4.9297,-4.9371,-4.9432,-4.9581,-4.9589,-4.9612,-4.967,-4.9753,-4.9769,-4.9783,-4.9837,-4.9856,-4.9625,-4.9625,-4.9625,0,-4.8307,-4.8464,-4.8513,-4.8624,-4.8691,-4.8715,-4.8827,-4.8895,-4.9032,-4.9078,-4.9056,-4.9282,-4.9354,-4.952,-4.9556,-4.9604,-4.9637,-4.9599,-4.9763,-4.9777,-4.9791,-4.9844,-4.9864,-4.9627,-4.9627,-4.9627,-4.9627,0,-4.8497,-4.8605,-4.8681,-4.8814,-4.8889,-4.9,-4.9068,-4.9138,-4.9162,-4.9215,-4.9357,-4.9445,-4.9565,-4.9607,-4.963,-4.9777,-4.9763,-4.9751,-4.9711,-4.9811,-4.9862,-4.9882,-4.9631,-4.963,-4.9629,-4.9629,0,0,-4.8619,-4.8778,-4.8805,-4.8867,-4.8989,-4.9074,-4.9187,-4.9305,-4.9366,-4.9459,-4.9556,-4.9707,-4.9698,-4.9767,-4.98,-4.9873,-4.9987,-4.9853,-4.9856,-4.9876,-5.0156,-5.0165,-5.0187,-4.9993,-4.9997,-5.0,-5.0147,0,-4.8752,-4.8954,-4.9003,-4.9175,-4.9277,-4.9301,-4.94,-4.9486,-4.9539,-4.9633,-4.9691,-4.9798,-4.9777,-4.9819,-4.9893,-4.9957,-5.0044,-4.9947,-5.0084,-5.0089,-5.0059,-5.0213,-5.0223,-5.0358,-5.0167,-5.0171,-5.0173,0,-4.8935,-4.9033,-4.9216,-4.9327,-4.9372,-4.9459,-4.9573,-4.9663,-4.9761,-4.9795,-4.9873,-4.9899,-5.0018,-4.9971,-5.0137,-5.007,-5.0129,-5.0169,-5.0176,-5.0191,-5.0138,-5.0235,-5.0402,-5.0423,-5.0204,-5.0202,-5.02,0,-4.9007,-4.9186,-4.9319,-4.937,-4.9503,-4.9564,-4.9622,-4.9717,-4.9786,-4.9885,-4.9931,-5.0042,-5.0103,-5.0189,-5.0244,-5.0205,-5.0406,-5.0364,-5.0438,-5.0437,-5.048,-5.0477,-5.0661,-5.0516,-5.0515,-5.0515,-5.0515,0,-4.9152,-4.9263,-4.9354,-4.9436,-4.9562,-4.9617,-4.974,-4.9799,-4.9884,-4.9978,-5.0005,-5.0093,-5.016,-5.0258,-5.0302,-5.0433,-5.046,-5.0491,-5.0502,-5.049,-5.0486,-5.053,-5.0523,-5.052,-5.0519,-5.0518,-5.0517,0,-4.9255,-4.932,-4.9467,-4.958,-4.9612,-4.97,-4.9797,-4.9878,-4.9932,-5.0051,-5.0082,-5.0167,-5.0283,-5.0347,-5.0492,-5.0522,-5.067,-5.0675,-5.0637,-5.0642,-5.0713,-5.0706,-5.0933,-5.0966,-5.0797,-5.0799,-5.08,0,-4.9343,-4.943,-4.9553,-4.9619,-4.9678,-4.9783,-4.9853,-4.9911,-4.9984,-5.0104,-5.0171,-5.0289,-5.0386,-5.0571,-5.0646,-5.0758,-5.0767,-5.0838,-5.0784,-5.0769,-5.077,-5.0765,-5.0775,-5.0848,-5.085,-5.0851,-5.0852,0,-4.9494,-4.9523,-4.9623,-4.9736,-4.982,-4.9911,-5.0002,-5.0054,-5.0127,-5.0207,-5.0327,-5.0403,-5.0552,-5.067,-5.0788,-5.0848,-5.0863,-5.0869,-5.0892,-5.0881,-5.0857,-5.0873,-5.0665,-5.0863,-5.0862,-5.0861,-5.0861,-5.086,-4.9594,-4.9673,-4.9773,-4.9885,-4.9959,-5.0044,-5.0126,-5.019,-5.0291,-5.0418,-5.0446,-5.0573,-5.0671,-5.0831,-5.0895,-5.0995,-5.0982,-5.1015,-5.1024,-5.1032,-5.1036,-5.084,-5.1017,-5.1016,-5.1016,-5.1016,-5.1016,0,-4.9748,-4.9814,-4.9916,-5.0043,-5.0131,-5.0137,-5.0239,-5.0312,-5.0424,-5.0514,-5.061,-5.0748,-5.0863,-5.0947,-5.1064,-5.1128,-5.1138,-5.1157,-5.1154,-5.1168,-5.104,-5.1009,-5.1147,-5.1147,-5.1147,-5.1147,-5.1147,-5.1147,-4.9839,-4.9973,-5.0013,-5.0185,-5.025,-5.0375,-5.0432,-5.0511,-5.0584,-5.0737,-5.0833,-5.0887,-5.0975,-5.1099,-5.1205,-5.1227,-5.1269,-5.1288,-5.1311,-5.119,-5.1176,-5.1163,-5.1134,-5.1296,-5.1296,-5.143,-5.1431,-5.1432]}]]